Madrid, Spain

4:15 AM CET on December 13, 2017 (GMT +0100)
Madrid-Barajas Airport

Weather History for LEMD - December, 2012

Change the Weather History Date:

Tuesday, December 4, 2012

  Actual Average Record
Temperature  
Mean Temperature 44 °F -  
Max Temperature 56 °F 49 °F 63 °F (2013)
Min Temperature 31 °F 33 °F 23 °F (2010)
Degree Days  
Heating Degree Days 22    
Moisture  
Dew Point 33 °F    
Average Humidity 68    
Maximum Humidity 93    
Minimum Humidity 36    
Precipitation  
Precipitation 0.00 in 0.06 in - ()
Sea Level Pressure  
Sea Level Pressure 30.20 in    
Wind  
Wind Speed 7 mph ()    
Max Wind Speed 26 mph    
Max Gust Speed 34 mph    
Visibility 7.5 miles    
Events      
Averages and records for this station are not official NWS values.
T = Trace of Precipitation, MM = Missing Value Source: Averaged Metar Reports

Daily Weather History Graph

Daily Weather History Graph

Search for Another Location

Airport or City:

Trip Planner

Search our weather history database for the weather conditions in past years. The results will help you decide how hot, cold, wet, or windy it might be!

Date:

Astronomy

Dec. 04, 2012 Rise Set
Actual Time 8:21 AM CET 5:47 PM CET
Civil Twilight 7:50 AM CET 6:18 PM CET
Nautical Twilight 7:16 AM CET 6:52 PM CET
Astronomical Twilight 6:43 AM CET 7:24 PM CET
Moon 11:21 PM CET (12/4) 12:07 PM CET (12/4)
Length of Visible Light 10h 27m
Length of Day
9h 26m
Waning Gibbous, 72% of the Moon is Illuminated
Dec 4
Waning Gibbous
Dec 6
Last Quarter
Dec 13
New
Dec 20
First Quarter
Dec 28
Full

Hourly Weather History & Observations

Time (CET) Temp. Windchill Dew Point Humidity Pressure Visibility Wind Dir Wind Speed Gust Speed Precip Events Conditions
12:00 AM 35.6 °F - 30.2 °F 81% 30.30 in - NNW 2.3 mph - N/A   Clear
12:30 AM 33.8 °F - 30.2 °F 87% 30.30 in - Variable 2.3 mph - N/A   Clear
1:00 AM 33 °F - 28 °F 74% 30.39 in 19 mi South 2.3 mph - -   Clear
1:00 AM 33.8 °F - 30.2 °F 87% 30.30 in - Variable 1.2 mph - N/A   Clear
1:30 AM 33.8 °F 27.7 °F 32.0 °F 93% 30.27 in - SSE 6.9 mph - N/A   Clear
2:00 AM 33.8 °F - 32.0 °F 93% 30.27 in - ESE 2.3 mph - N/A   Clear
2:30 AM 35.6 °F 31.7 °F 32.0 °F 87% 30.27 in - East 4.6 mph - N/A   Clear
3:00 AM 32.0 °F 28.7 °F 30.2 °F 93% 30.27 in - North 3.5 mph - N/A   Clear
3:30 AM 32.0 °F - 30.2 °F 93% 30.27 in - Calm Calm - N/A   Clear
4:00 AM 32.0 °F - 30.2 °F 93% 30.24 in - Variable 2.3 mph - N/A   Clear
4:30 AM 33.8 °F 29.6 °F 32.0 °F 93% 30.24 in - East 4.6 mph - N/A   Clear
5:00 AM 33.8 °F 28.6 °F 32.0 °F 93% 30.21 in 6.2 mi ESE 5.8 mph - N/A   Partly Cloudy
5:30 AM 33.8 °F 29.6 °F 32.0 °F 93% 30.21 in 6.2 mi ENE 4.6 mph - N/A   Partly Cloudy
6:00 AM 32.0 °F 28.7 °F 30.2 °F 93% 30.21 in 6.2 mi NNW 3.5 mph - N/A   Partly Cloudy
6:30 AM 33.8 °F - 32.0 °F 93% 30.21 in 6.2 mi Variable 1.2 mph - N/A   Partly Cloudy
7:00 AM 33 °F - 30 °F 83% 30.32 in 12 mi SE 4.6 mph - -   Clear
7:00 AM 33.8 °F - 32.0 °F 93% 30.21 in - Variable 2.3 mph - N/A   Clear
7:30 AM 37.4 °F 32.1 °F 35.6 °F 93% 30.21 in 6.2 mi South 6.9 mph - N/A   Partly Cloudy
8:00 AM 39.2 °F 34.2 °F 35.6 °F 87% 30.21 in 6.2 mi South 6.9 mph - N/A   Partly Cloudy
8:30 AM 39.2 °F 34.2 °F 35.6 °F 87% 30.21 in 6.2 mi South 6.9 mph - N/A   Partly Cloudy
9:00 AM 39.2 °F 34.2 °F 35.6 °F 87% 30.21 in 6.2 mi South 6.9 mph - N/A   Partly Cloudy
9:30 AM 39.2 °F 33.6 °F 35.6 °F 87% 30.21 in 6.2 mi SE 8.1 mph - N/A   Partly Cloudy
10:00 AM 39.2 °F 35.0 °F 37.4 °F 93% 30.21 in 6.2 mi East 5.8 mph - N/A   Scattered Clouds
10:30 AM 42.8 °F 37.5 °F 37.4 °F 81% 30.21 in 6.2 mi SSE 9.2 mph - N/A   Partly Cloudy
11:00 AM 46.4 °F 44.3 °F 39.2 °F 76% 30.21 in - SSE 4.6 mph - N/A   Clear
11:30 AM 50.0 °F - 39.2 °F 66% 30.21 in 6.2 mi SSE 3.5 mph - N/A   Partly Cloudy
12:00 PM 51.8 °F - 41.0 °F 67% 30.18 in 6.2 mi SW 5.8 mph 17.3 mph N/A   Partly Cloudy
12:30 PM 55.4 °F - 41.0 °F 58% 30.18 in 6.2 mi West 15.0 mph - N/A   Partly Cloudy
1:00 PM 55 °F - 38 °F 40% 30.17 in 19 mi West 21.9 mph - -   Scattered Clouds
1:00 PM 55.4 °F - 39.2 °F 54% 30.15 in 6.2 mi West 21.9 mph - N/A   Partly Cloudy
1:30 PM 55.4 °F - 37.4 °F 51% 30.15 in 6.2 mi West 21.9 mph - N/A   Scattered Clouds
2:00 PM 57.2 °F - 37.4 °F 48% 30.15 in 6.2 mi West 21.9 mph - N/A   Scattered Clouds
2:30 PM 55.4 °F - 33.8 °F 44% 30.15 in 6.2 mi West 20.7 mph 32.2 mph N/A   Scattered Clouds
3:00 PM 57.2 °F - 33.8 °F 41% 30.15 in 6.2 mi West 20.7 mph 34.5 mph N/A   Partly Cloudy
3:30 PM 55.4 °F - 33.8 °F 44% 30.15 in 6.2 mi West 19.6 mph 32.2 mph N/A   Partly Cloudy
4:00 PM 55.4 °F - 33.8 °F 44% 30.15 in 6.2 mi West 20.7 mph - N/A   Partly Cloudy
4:30 PM 55.4 °F - 32.0 °F 41% 30.15 in 6.2 mi West 21.9 mph 33.4 mph N/A   Partly Cloudy
5:00 PM 53.6 °F - 32.0 °F 44% 30.12 in 6.2 mi West 26.5 mph - N/A   Partly Cloudy
5:30 PM 51.8 °F - 32.0 °F 47% 30.12 in 6.2 mi West 26.5 mph - N/A   Partly Cloudy
6:00 PM 51.8 °F - 32.0 °F 47% 30.12 in 6.2 mi West 13.8 mph - N/A   Partly Cloudy
6:30 PM 51.8 °F - 30.2 °F 44% 30.15 in 6.2 mi WSW 5.8 mph - N/A   Partly Cloudy
7:00 PM 49 °F - 31 °F 36% 30.17 in 19 mi West 6.9 mph - -   Scattered Clouds
7:00 PM 50.0 °F - 32.0 °F 50% 30.15 in 6.2 mi West 5.8 mph - N/A   Partly Cloudy
7:30 PM 50.0 °F - 32.0 °F 50% 30.15 in 6.2 mi West 11.5 mph - N/A   Partly Cloudy
8:00 PM 48.2 °F - 32.0 °F 54% 30.15 in 6.2 mi West 11.5 mph - N/A   Partly Cloudy
8:30 PM 48.2 °F - 32.0 °F 54% 30.15 in 6.2 mi WNW 5.8 mph - N/A   Partly Cloudy
9:00 PM 48.2 °F - 30.2 °F 50% 30.15 in 6.2 mi West 10.4 mph 21.9 mph N/A   Partly Cloudy
9:30 PM 46.4 °F 43.5 °F 30.2 °F 53% 30.15 in - WNW 5.8 mph - N/A   Clear
10:00 PM 46.4 °F 40.1 °F 30.2 °F 53% 30.15 in - WNW 15.0 mph - N/A   Clear
10:30 PM 46.4 °F 39.0 °F 30.2 °F 53% 30.15 in - West 19.6 mph - N/A   Clear
11:00 PM 46.4 °F 39.5 °F 30.2 °F 53% 30.15 in - West 17.3 mph - N/A   Clear
11:30 PM 46.4 °F 40.4 °F 30.2 °F 53% 30.15 in - West 13.8 mph - N/A   Clear